{"data":{"norad_id":60383,"intl_designator":"2024-140E","name":"QIANFAN-5","alt_names":[],"object_type":"PAYLOAD","status":"ACTIVE","operator":null,"country":"PRC","launch_date":"2024-08-06","launch_site_code":"TAISC","launch_vehicle":null,"mission":null,"orbit_class":"UNKNOWN","rcs_meters":null,"size_class":null,"mass_kg":null,"dimensions":null,"purposes":[],"wikipedia_slug":null,"has_3d_model":false,"image_url":null,"decayed_at":null,"tle_current":{"epoch":"2026-09-22T22:24:33.233472Z","epoch_age_seconds":73406,"freshness":"FRESH","line1":"1 60383U 24140E   26265.93371798  .00000049  00000+0  57202-4 0  9991","line2":"2 60383  88.9642 269.7077 0017218 107.8998 252.4032 13.51031469105678","mean_motion":13.51031469,"eccentricity":0.0017218,"inclination_deg":88.9642,"raan_deg":269.7077,"arg_perigee_deg":107.8998,"mean_anomaly_deg":252.4032,"bstar":5.7202e-5,"rev_number":10567,"period_min":106.58523010318,"perigee_km":1055.6443883441,"apogee_km":1081.2875102603,"semimajor_km":7446.6029493022,"source":"CELESTRAK","updated_at":"2026-09-23T09:00:20.567174Z"}}}